| time (UTC) | temp C | wind direction | speed KPH | gust KPH | rain 1hr cm | rain 24hr cm | rain mn cm | humidity % | barometer mb |
| 20260507121545 | 22 | 243 | 8.0 | 17.7 | 0.00 | 0.00 | 0.00 | 44 | 1010.3 |
| 20260507120048 | 22 | 254 | 4.8 | 12.9 | 0.00 | 0.00 | 0.00 | 43 | 1010.4 |
| 20260507114547 | 22 | 244 | 3.2 | 9.7 | 0.00 | 0.00 | 0.00 | 44 | 1010.6 |
| 20260507113044 | 23 | 74 | 0.0 | 6.4 | 0.00 | 0.00 | 0.00 | 46 | 1010.7 |
| 20260507111544 | 21 | 221 | 0.0 | 14.5 | 0.00 | 0.00 | 0.00 | 50 | 1010.9 |
| 20260507110042 | 21 | 250 | 3.2 | 11.3 | 0.00 | 0.00 | 0.00 | 50 | 1010.9 |
| 20260507104554 | 20 | 259 | 1.6 | 12.9 | 0.00 | 0.00 | 0.00 | 52 | 1010.9 |
| 20260507103046 | 19 | 272 | 4.8 | 14.5 | 0.00 | 0.00 | 0.00 | 58 | 1011.0 |
| 20260507101556 | 18 | 241 | 4.8 | 9.7 | 0.00 | 0.00 | 0.00 | 61 | 1011.0 |
| 20260507100054 | 18 | 226 | 4.8 | 8.0 | 0.00 | 0.00 | 0.00 | 61 | 1011.0 |
| 20260507094543 | 17 | 116 | 1.6 | 12.9 | 0.00 | 0.00 | 0.00 | 64 | 1011.0 |
| 20260507093042 | 18 | 225 | 3.2 | 11.3 | 0.00 | 0.00 | 0.00 | 65 | 1011.1 |
| 20260507091550 | 17 | 239 | 4.8 | 12.9 | 0.00 | 0.00 | 0.00 | 66 | 1011.1 |
| 20260507090048 | 16 | 250 | 3.2 | 8.0 | 0.00 | 0.00 | 0.00 | 69 | 1011.0 |
| 20260507084549 | 15 | 193 | 4.8 | 9.7 | 0.00 | 0.00 | 0.00 | 72 | 1010.9 |
| 20260507083058 | 15 | 257 | 3.2 | 11.3 | 0.00 | 0.00 | 0.00 | 74 | 1010.8 |
| 20260507081547 | 14 | 239 | 4.8 | 12.9 | 0.00 | 0.00 | 0.00 | 77 | 1010.7 |
| 20260507080049 | 14 | 208 | 4.8 | 9.7 | 0.00 | 0.00 | 0.00 | 79 | 1010.8 |
| 20260507074540 | 13 | 246 | 3.2 | 12.9 | 0.00 | 0.00 | 0.00 | 83 | 1010.7 |
| 20260507073050 | 12 | 231 | 6.4 | 11.3 | 0.00 | 0.00 | 0.00 | 85 | 1010.6 |
| 20260507071545 | 11 | 230 | 8.0 | 12.9 | 0.00 | 0.00 | 0.00 | 86 | 1010.5 |
| 20260507070047 | 11 | 218 | 6.4 | 8.0 | 0.00 | 0.00 | 0.00 | 84 | 1010.4 |
| 20260507064545 | 11 | 0 | 1.6 | 6.4 | 0.00 | 0.00 | 0.00 | 87 | 1010.2 |
| 20260507063049 | 11 | 251 | 4.8 | 8.0 | 0.00 | 0.00 | 0.00 | 87 | 1010.1 |
| 20260507061544 | 11 | 231 | 1.6 | 9.7 | 0.00 | 0.00 | 0.00 | 87 | 1010.2 |
| 20260507060057 | 10 | 198 | 3.2 | 4.8 | 0.00 | 0.00 | 0.00 | 87 | 1009.9 |
| 20260507054548 | 10 | 0 | 1.6 | 6.4 | 0.00 | 0.00 | 0.00 | 88 | 1009.7 |
| 20260507053049 | 10 | 226 | 1.6 | 6.4 | 0.00 | 0.00 | 0.00 | 88 | 1009.5 |
| 20260507051546 | 10 | 209 | 1.6 | 3.2 | 0.00 | 0.00 | 0.00 | 88 | 1009.6 |
| 20260507050045 | 10 | 222 | 3.2 | 6.4 | 0.00 | 0.00 | 0.00 | 87 | 1009.5 |
| 20260507044553 | 11 | 227 | 1.6 | 4.8 | 0.00 | 0.00 | 0.00 | 86 | 1009.6 |
| 20260507043047 | 11 | 0 | 0.0 | 3.2 | 0.00 | 0.00 | 0.00 | 86 | 1009.4 |
| 20260507041548 | 11 | 226 | 0.0 | 4.8 | 0.00 | 0.00 | 0.00 | 84 | 1009.6 |
| 20260507040045 | 12 | 238 | 1.6 | 12.9 | 0.00 | 0.00 | 0.00 | 83 | 1009.5 |
| 20260507034545 | 12 | 236 | 1.6 | 8.0 | 0.00 | 0.00 | 0.00 | 82 | 1009.5 |
| 20260507033044 | 12 | 255 | 1.6 | 9.7 | 0.00 | 0.00 | 0.00 | 83 | 1009.5 |
| 20260507031541 | 11 | 256 | 3.2 | 6.4 | 0.00 | 0.00 | 0.00 | 82 | 1009.9 |
| 20260507030046 | 12 | 132 | 0.0 | 1.6 | 0.00 | 0.00 | 0.00 | 81 | 1009.7 |
| 20260507024554 | 12 | 157 | 0.0 | 1.6 | 0.00 | 0.00 | 0.00 | 80 | 1009.6 |
| 20260507023045 | 12 | 0 | 0.0 | 3.2 | 0.00 | 0.00 | 0.00 | 79 | 1009.7 |
| 20260507021545 | 12 | 98 | 0.0 | 1.6 | 0.00 | 0.00 | 0.00 | 78 | 1009.6 |
| 20260507020105 | 12 | 211 | 1.6 | 4.8 | 0.00 | 0.00 | 0.00 | 77 | 1009.7 |
| 20260507014554 | 12 | 163 | 0.0 | 1.6 | 0.00 | 0.00 | 0.00 | 76 | 1009.7 |
| 20260507013048 | 12 | 0 | 0.0 | 3.2 | 0.00 | 0.00 | 0.00 | 75 | 1009.8 |
| 20260507011551 | 13 | 0 | 0.0 | 1.6 | 0.00 | 0.00 | 0.00 | 74 | 1009.9 |
| 20260507010044 | 13 | 250 | 0.0 | 1.6 | 0.00 | 0.00 | 0.00 | 74 | 1009.9 |
| 20260507004550 | 13 | 269 | 1.6 | 4.8 | 0.00 | 0.00 | 0.00 | 73 | 1010.0 |
| 20260507003047 | 13 | 181 | 0.0 | 4.8 | 0.00 | 0.00 | 0.00 | 72 | 1010.1 |
| 20260507001547 | 13 | 236 | 0.0 | 4.8 | 0.00 | 0.00 | 0.00 | 71 | 1010.2 |
| 20260507000045 | 14 | 245 | 1.6 | 4.8 | 0.00 | 0.00 | 0.00 | 71 | 1010.4 |
| 20260506234550 | 14 | 171 | 0.0 | 9.7 | 0.00 | 0.00 | 0.00 | 70 | 1010.3 |
| 20260506233043 | 14 | 200 | 1.6 | 8.0 | 0.00 | 0.00 | 0.00 | 69 | 1010.3 |
| 20260506231551 | 15 | 212 | 1.6 | 14.5 | 0.00 | 0.00 | 0.00 | 68 | 1010.2 |
| 20260506230056 | 15 | 221 | 1.6 | 8.0 | 0.00 | 0.00 | 0.00 | 67 | 1010.1 |
| 20260506224546 | 15 | 200 | 3.2 | 12.9 | 0.00 | 0.00 | 0.00 | 66 | 1010.1 |
| 20260506223051 | 15 | 262 | 3.2 | 17.7 | 0.00 | 0.00 | 0.00 | 65 | 1010.2 |
| 20260506221544 | 16 | 166 | 3.2 | 11.3 | 0.00 | 0.00 | 0.00 | 64 | 1010.1 |
| 20260506220055 | 16 | 127 | 1.6 | 9.7 | 0.00 | 0.00 | 0.00 | 63 | 1010.0 |
| 20260506214549 | 16 | 211 | 3.2 | 11.3 | 0.00 | 0.00 | 0.00 | 61 | 1009.9 |
| 20260506213103 | 16 | 290 | 1.6 | 11.3 | 0.00 | 0.00 | 0.00 | 59 | 1009.7 |
| 20260506211603 | 17 | 223 | 1.6 | 8.0 | 0.00 | 0.00 | 0.00 | 56 | 1009.7 |
| 20260506210045 | 17 | 233 | 1.6 | 11.3 | 0.00 | 0.00 | 0.00 | 52 | 1009.7 |
| 20260506204550 | 17 | 229 | 1.6 | 4.8 | 0.00 | 0.00 | 0.00 | 50 | 1009.4 |
| 20260506203047 | 18 | 255 | 0.0 | 3.2 | 0.00 | 0.00 | 0.00 | 49 | 1009.2 |
| 20260506201559 | 18 | 349 | 1.6 | 4.8 | 0.00 | 0.00 | 0.00 | 47 | 1009.2 |
| 20260506200052 | 19 | 240 | 0.0 | 1.6 | 0.00 | 0.00 | 0.00 | 46 | 1009.0 |
| 20260506194557 | 19 | 0 | 0.0 | 1.6 | 0.00 | 0.00 | 0.00 | 44 | 1009.1 |
| 20260506193054 | 20 | 0 | 0.0 | 1.6 | 0.00 | 0.00 | 0.00 | 42 | 1009.1 |
| 20260506191553 | 21 | 0 | 0.0 | 1.6 | 0.00 | 0.00 | 0.00 | 40 | 1009.1 |
| 20260506190044 | 21 | 0 | 0.0 | 3.2 | 0.00 | 0.00 | 0.00 | 39 | 1009.1 |
| 20260506184542 | 22 | 283 | 0.0 | 4.8 | 0.00 | 0.00 | 0.00 | 37 | 1009.1 |
| 20260506183058 | 22 | 230 | 1.6 | 6.4 | 0.00 | 0.00 | 0.00 | 36 | 1009.2 |
| 20260506181544 | 22 | 241 | 4.8 | 9.7 | 0.00 | 0.00 | 0.00 | 37 | 1009.4 |
| 20260506180049 | 22 | 240 | 4.8 | 9.7 | 0.00 | 0.00 | 0.00 | 36 | 1009.4 |
| 20260506174545 | 23 | 218 | 3.2 | 8.0 | 0.00 | 0.00 | 0.00 | 36 | 1009.6 |
| 20260506173050 | 22 | 217 | 6.4 | 12.9 | 0.00 | 0.00 | 0.00 | 35 | 1009.6 |
| 20260506171542 | 23 | 340 | 1.6 | 12.9 | 0.00 | 0.00 | 0.00 | 37 | 1009.7 |
| 20260506170108 | 23 | 225 | 4.8 | 9.7 | 0.00 | 0.00 | 0.00 | 36 | 1009.7 |
| 20260506164542 | 23 | 262 | 1.6 | 8.0 | 0.00 | 0.00 | 0.00 | 36 | 1009.7 |
| 20260506163054 | 23 | 247 | 1.6 | 14.5 | 0.00 | 0.00 | 0.00 | 36 | 1009.9 |
| 20260506161544 | 24 | 198 | 1.6 | 6.4 | 0.00 | 0.00 | 0.00 | 36 | 1009.8 |
| 20260506160043 | 24 | 203 | 0.0 | 11.3 | 0.00 | 0.00 | 0.00 | 37 | 1009.9 |
| 20260506154544 | 22 | 262 | 1.6 | 12.9 | 0.00 | 0.00 | 0.00 | 37 | 1009.9 |
| 20260506153046 | 23 | 223 | 1.6 | 12.9 | 0.00 | 0.00 | 0.00 | 39 | 1010.1 |
| 20260506151546 | 24 | 94 | 1.6 | 11.3 | 0.00 | 0.00 | 0.00 | 37 | 1010.4 |
| 20260506150044 | 23 | 180 | 1.6 | 8.0 | 0.00 | 0.00 | 0.00 | 41 | 1010.6 |
| 20260506144558 | 23 | 217 | 4.8 | 12.9 | 0.00 | 0.00 | 0.00 | 39 | 1010.9 |
| 20260506143041 | 23 | 255 | 3.2 | 9.7 | 0.00 | 0.00 | 0.00 | 38 | 1011.0 |
| 20260506141540 | 23 | 262 | 3.2 | 9.7 | 0.00 | 0.00 | 0.00 | 39 | 1011.3 |
| 20260506140048 | 23 | 0 | 1.6 | 8.0 | 0.00 | 0.00 | 0.00 | 41 | 1011.5 |
| 20260506134545 | 23 | 217 | 1.6 | 11.3 | 0.00 | 0.00 | 0.00 | 42 | 1011.8 |
| 20260506133045 | 22 | 225 | 1.6 | 11.3 | 0.00 | 0.00 | 0.00 | 40 | 1011.8 |
| 20260506131544 | 22 | 216 | 3.2 | 11.3 | 0.00 | 0.00 | 0.00 | 42 | 1012.0 |
| 20260506130046 | 22 | 236 | 1.6 | 3.2 | 0.00 | 0.00 | 0.00 | 41 | 1012.1 |
| 20260506124543 | 21 | 104 | 1.6 | 9.7 | 0.00 | 0.00 | 0.00 | 42 | 1012.3 |
| 20260506123048 | 23 | 88 | 1.6 | 9.7 | 0.00 | 0.00 | 0.00 | 40 | 1012.7 |